SWA2437 KTPA-KROC

Flight info

Callsign SWA2437
Flight time 2h 16m
Altitude 35000
Route BAYPO2 CAMJO Q99 TEEEM RYCKI Q69 RICCS
Aircraft B738/M-SADE2E3GIJ4RWZ/LB1D1

Departure

Time 2026-04-25 12:25
Airport Tampa International Airport (KTPA)

Arrival

Time 2026-04-25 14:41
Airport Frederick Douglass Greater Rochester International Airport (KROC)
Time Latitude Longitude Altitude Speed Heading
2026-04-25 12:01 27.97896 -82.53842 6 ft 0 kts 359°
2026-04-25 12:19 27.97882 -82.53842 30 ft 2 kts 360°
2026-04-25 12:19 27.97860 -82.53842 27 ft 2 kts
2026-04-25 12:19 27.97844 -82.53842 30 ft 2 kts 354°
2026-04-25 12:20 27.97828 -82.53837 27 ft 2 kts 317°
2026-04-25 12:20 27.97821 -82.53826 30 ft 1 kts 281°
2026-04-25 12:20 27.97820 -82.53821 30 ft 0 kts 278°
2026-04-25 12:21 27.97821 -82.53831 29 ft 5 kts 274°
2026-04-25 12:21 27.97812 -82.53920 24 ft 16 kts 269°
2026-04-25 12:22 27.97862 -82.54036 20 ft 17 kts 323°
2026-04-25 12:22 27.97975 -82.54060 22 ft 17 kts
2026-04-25 12:22 27.98088 -82.54056 25 ft 16 kts
2026-04-25 12:22 27.98197 -82.54051 28 ft 15 kts
2026-04-25 12:23 27.98301 -82.54046 28 ft 15 kts
2026-04-25 12:23 27.98401 -82.54043 30 ft 14 kts
2026-04-25 12:23 27.98496 -82.54039 31 ft 13 kts
2026-04-25 12:23 27.98588 -82.54039 31 ft 13 kts
2026-04-25 12:24 27.98658 -82.54082 30 ft 13 kts 285°
2026-04-25 12:24 27.98612 -82.54153 31 ft 12 kts 189°
2026-04-25 12:24 27.98454 -82.54161 30 ft 60 kts 182°
2026-04-25 12:24 27.97647 -82.54181 115 ft 164 kts 181°
2026-04-25 12:25 27.96361 -82.54362 996 ft 208 kts 194°
2026-04-25 12:25 27.94920 -82.54983 1813 ft 241 kts 202°
2026-04-25 12:25 27.93317 -82.55653 2930 ft 242 kts 198°
2026-04-25 12:25 27.91878 -82.56556 4054 ft 239 kts 223°
2026-04-25 12:26 27.91007 -82.58159 4897 ft 245 kts 254°
2026-04-25 12:26 27.90953 -82.60077 5567 ft 249 kts 282°
2026-04-25 12:26 27.91739 -82.61814 5947 ft 258 kts 311°
2026-04-25 12:26 27.93253 -82.63020 5988 ft 275 kts 339°
2026-04-25 12:27 27.95160 -82.63331 6011 ft 280 kts
2026-04-25 12:27 27.97088 -82.63122 6009 ft 278 kts
2026-04-25 12:27 27.99006 -82.62832 6025 ft 278 kts
2026-04-25 12:27 28.00898 -82.62389 6296 ft 279 kts 13°
2026-04-25 12:28 28.02805 -82.61876 7277 ft 281 kts 13°
2026-04-25 12:28 28.04701 -82.61367 8575 ft 280 kts 12°
2026-04-25 12:28 28.06608 -82.60869 9766 ft 284 kts 11°
2026-04-25 12:28 28.08558 -82.60374 10689 ft 295 kts 11°
2026-04-25 12:29 28.10666 -82.59849 11031 ft 326 kts 11°
2026-04-25 12:29 28.12962 -82.59282 11572 ft 344 kts 11°
2026-04-25 12:29 28.15322 -82.58699 12541 ft 348 kts 10°
2026-04-25 12:29 28.17684 -82.58116 13674 ft 347 kts 10°
2026-04-25 12:30 28.20068 -82.57613 14530 ft 352 kts
2026-04-25 12:30 28.22499 -82.57595 15241 ft 358 kts 354°
2026-04-25 12:30 28.25000 -82.57861 16023 ft 364 kts 353°
2026-04-25 12:30 28.27554 -82.58048 16810 ft 371 kts 356°
2026-04-25 12:31 28.30164 -82.58035 17588 ft 378 kts 359°
2026-04-25 12:31 28.32815 -82.58009 18332 ft 385 kts 358°
2026-04-25 12:31 28.35508 -82.58041 19039 ft 388 kts 356°
2026-04-25 12:31 28.38215 -82.58109 19814 ft 391 kts 356°
2026-04-25 12:32 28.40942 -82.58183 20579 ft 393 kts 356°
2026-04-25 12:32 28.43691 -82.58257 21307 ft 397 kts 356°
2026-04-25 12:32 28.46465 -82.58330 22007 ft 400 kts 356°
2026-04-25 12:32 28.49262 -82.58401 22688 ft 404 kts 356°
2026-04-25 12:33 28.52083 -82.58473 23359 ft 407 kts 356°
2026-04-25 12:33 28.54929 -82.58544 23933 ft 411 kts 356°
2026-04-25 12:33 28.57796 -82.58616 24475 ft 414 kts 356°
2026-04-25 12:33 28.60687 -82.58689 25013 ft 417 kts 356°
2026-04-25 12:34 28.63599 -82.58762 25541 ft 420 kts 356°
2026-04-25 12:34 28.66528 -82.58837 26060 ft 423 kts 356°
2026-04-25 12:34 28.69476 -82.59021 26559 ft 425 kts 353°
2026-04-25 12:34 28.71425 -82.59239 26886 ft 427 kts 352°
2026-04-25 12:35 28.75382 -82.59824 27514 ft 430 kts 351°
2026-04-25 12:35 28.78355 -82.60305 27977 ft 433 kts 351°
2026-04-25 12:35 28.81355 -82.60784 28421 ft 436 kts 351°
2026-04-25 12:35 28.84371 -82.61245 28855 ft 439 kts 351°
2026-04-25 12:36 28.87413 -82.61690 29295 ft 442 kts 352°
2026-04-25 12:36 28.90469 -82.62125 29705 ft 445 kts 352°
2026-04-25 12:36 28.93556 -82.62557 30089 ft 448 kts 352°
2026-04-25 12:36 28.96623 -82.62983 30412 ft 450 kts 352°
2026-04-25 12:37 28.99744 -82.63417 30727 ft 453 kts 352°
2026-04-25 12:37 29.02873 -82.63853 31069 ft 454 kts 352°
2026-04-25 12:37 29.06011 -82.64291 31495 ft 453 kts 352°
2026-04-25 12:37 29.09130 -82.64728 31974 ft 451 kts 352°
2026-04-25 12:38 29.12246 -82.65164 32442 ft 450 kts 352°
2026-04-25 12:38 29.15350 -82.65600 32867 ft 449 kts 352°
2026-04-25 12:38 29.18449 -82.66036 33294 ft 449 kts 352°
2026-04-25 12:38 29.21546 -82.66471 33739 ft 448 kts 352°
2026-04-25 12:39 29.24634 -82.66905 34164 ft 446 kts 352°
2026-04-25 12:39 29.27708 -82.67338 34554 ft 445 kts 352°
2026-04-25 12:39 29.30785 -82.67771 34924 ft 445 kts 352°
2026-04-25 12:40 29.36862 -82.68627 34974 ft 442 kts 352°
2026-04-25 12:40 29.42924 -82.69430 34973 ft 437 kts 355°
2026-04-25 12:41 29.49017 -82.69545 34980 ft 439 kts
2026-04-25 12:41 29.55143 -82.69340 34979 ft 441 kts
2026-04-25 12:42 29.61288 -82.69206 34979 ft 442 kts 360°
2026-04-25 12:42 29.67445 -82.69151 34979 ft 443 kts 359°
2026-04-25 12:43 29.73619 -82.69119 34977 ft 443 kts 359°
2026-04-25 12:43 29.82816 -82.69066 34975 ft 439 kts 359°
2026-04-25 12:44 29.88920 -82.69027 34975 ft 438 kts 359°
2026-04-25 12:45 29.98065 -82.68970 34970 ft 438 kts 359°
2026-04-25 12:45 30.07195 -82.68909 34974 ft 440 kts 359°
2026-04-25 12:46 30.13324 -82.68865 34970 ft 441 kts 359°
2026-04-25 12:46 30.19468 -82.68822 34971 ft 442 kts 359°
2026-04-25 12:47 30.25630 -82.68778 34973 ft 443 kts 359°
2026-04-25 12:47 30.31804 -82.68735 34963 ft 443 kts 359°
2026-04-25 12:48 30.37972 -82.68691 34968 ft 443 kts 359°
2026-04-25 12:48 30.44128 -82.68648 34969 ft 442 kts 359°
2026-04-25 12:49 30.50290 -82.68593 34971 ft 443 kts
2026-04-25 12:49 30.56381 -82.67465 34977 ft 446 kts 13°
2026-04-25 12:50 30.62419 -82.65758 34964 ft 447 kts
2026-04-25 12:50 30.67519 -82.64819 34978 ft 447 kts
2026-04-25 12:51 30.74669 -82.63536 34974 ft 448 kts
2026-04-25 12:51 30.79811 -82.62485 34960 ft 448 kts
2026-04-25 12:52 30.85934 -82.61174 34969 ft 447 kts
2026-04-25 12:52 30.92021 -82.59866 34967 ft 447 kts
2026-04-25 12:53 30.98129 -82.58561 34965 ft 446 kts
2026-04-25 12:53 31.04240 -82.57255 34965 ft 446 kts
2026-04-25 12:54 31.10281 -82.55638 34956 ft 447 kts 17°
2026-04-25 12:54 31.15792 -82.52276 34967 ft 449 kts 31°
2026-04-25 12:55 31.20195 -82.49073 34961 ft 448 kts 28°
2026-04-25 12:55 31.26665 -82.45156 34972 ft 448 kts 24°
2026-04-25 12:56 31.32249 -82.41934 34968 ft 448 kts 25°
2026-04-25 12:56 31.37807 -82.38620 34960 ft 448 kts 26°
2026-04-25 12:57 31.43343 -82.35249 34958 ft 448 kts 26°
2026-04-25 12:57 31.48875 -82.31861 34953 ft 449 kts 26°
2026-04-25 12:58 31.54367 -82.28496 34953 ft 449 kts 26°
2026-04-25 12:58 31.59904 -82.25103 34957 ft 449 kts 26°
2026-04-25 12:59 31.65442 -82.21706 34957 ft 450 kts 26°
2026-04-25 12:59 31.70995 -82.18295 34972 ft 450 kts 26°
2026-04-25 13:00 31.75603 -82.15461 34957 ft 449 kts 26°
2026-04-25 13:00 31.82072 -82.11475 34949 ft 449 kts 26°
2026-04-25 13:01 31.87595 -82.08068 34953 ft 448 kts 26°
2026-04-25 13:01 31.93113 -82.04659 34960 ft 448 kts 26°
2026-04-25 13:02 31.98629 -82.01247 34955 ft 448 kts 26°
2026-04-25 13:02 32.04146 -81.97829 34959 ft 448 kts 26°
2026-04-25 13:03 32.09630 -81.94427 34955 ft 448 kts 26°
2026-04-25 13:03 32.15228 -81.91080 34948 ft 448 kts 20°
2026-04-25 13:04 32.21188 -81.89288 34949 ft 445 kts 10°
2026-04-25 13:04 32.27227 -81.87620 34943 ft 446 kts 15°
2026-04-25 13:05 32.33155 -81.85435 34947 ft 447 kts 16°
2026-04-25 13:05 32.39096 -81.83259 34934 ft 447 kts 15°
2026-04-25 13:06 32.45066 -81.81193 34939 ft 447 kts 14°
2026-04-25 13:06 32.51053 -81.79180 34940 ft 447 kts 14°
2026-04-25 13:07 32.57048 -81.77175 34932 ft 448 kts 14°
2026-04-25 13:07 32.63048 -81.75164 34952 ft 448 kts 14°
2026-04-25 13:08 32.69050 -81.73145 34948 ft 449 kts 14°
2026-04-25 13:08 32.75061 -81.71119 34949 ft 449 kts 14°
2026-04-25 13:09 32.81077 -81.69087 34951 ft 449 kts 14°
2026-04-25 13:09 32.87095 -81.67053 34936 ft 450 kts 14°
2026-04-25 13:10 32.93118 -81.65014 34927 ft 450 kts 14°
2026-04-25 13:10 32.99144 -81.62971 34925 ft 450 kts 14°
2026-04-25 13:11 33.05126 -81.60941 34942 ft 450 kts 14°
2026-04-25 13:11 33.11147 -81.58894 34936 ft 450 kts 14°
2026-04-25 13:12 33.17163 -81.56846 34938 ft 450 kts 14°
2026-04-25 13:12 33.22173 -81.55139 34939 ft 450 kts 14°
2026-04-25 13:13 33.29208 -81.52737 34939 ft 450 kts 14°
2026-04-25 13:13 33.35238 -81.50675 34942 ft 451 kts 14°
2026-04-25 13:14 33.41269 -81.48611 34939 ft 451 kts 14°
2026-04-25 13:14 33.47313 -81.46538 34932 ft 452 kts 14°
2026-04-25 13:15 33.53365 -81.44460 34937 ft 452 kts 14°
2026-04-25 13:15 33.59378 -81.42393 34936 ft 453 kts 14°
2026-04-25 13:16 33.65433 -81.40307 34936 ft 453 kts 14°
2026-04-25 13:16 33.71495 -81.38216 34933 ft 454 kts 14°
2026-04-25 13:17 33.77567 -81.36119 34921 ft 454 kts 14°
2026-04-25 13:17 33.83642 -81.34018 34927 ft 454 kts 14°
2026-04-25 13:18 33.89718 -81.31913 34928 ft 455 kts 14°
2026-04-25 13:18 33.95797 -81.29803 34916 ft 455 kts 14°
2026-04-25 13:19 34.01878 -81.27690 34922 ft 455 kts 14°
2026-04-25 13:19 34.06933 -81.25932 34915 ft 454 kts 14°
2026-04-25 13:20 34.14030 -81.23459 34934 ft 455 kts 14°
2026-04-25 13:20 34.20084 -81.21346 34931 ft 456 kts 14°
2026-04-25 13:21 34.26176 -81.19216 34931 ft 456 kts 14°
2026-04-25 13:21 34.32271 -81.17083 34936 ft 457 kts 14°
2026-04-25 13:22 34.38377 -81.14942 34933 ft 457 kts 14°
2026-04-25 13:23 34.47536 -81.11725 34934 ft 457 kts 14°
2026-04-25 13:23 34.53643 -81.09574 34925 ft 457 kts 14°
2026-04-25 13:24 34.59749 -81.07423 34922 ft 457 kts 14°
2026-04-25 13:24 34.65855 -81.05269 34928 ft 457 kts 14°
2026-04-25 13:25 34.71983 -81.03102 34932 ft 458 kts 14°
2026-04-25 13:25 34.78110 -81.00931 34935 ft 459 kts 14°
2026-04-25 13:26 34.84212 -80.98768 34930 ft 460 kts 14°
2026-04-25 13:26 34.90358 -80.96584 34942 ft 460 kts 14°
2026-04-25 13:27 34.96552 -80.94381 34941 ft 461 kts 14°
2026-04-25 13:27 35.02672 -80.92200 34933 ft 461 kts 14°
2026-04-25 13:28 35.08827 -80.90003 34926 ft 460 kts 14°
2026-04-25 13:28 35.14959 -80.87810 34943 ft 460 kts 14°
2026-04-25 13:29 35.21108 -80.85610 34933 ft 460 kts 14°
2026-04-25 13:29 35.27259 -80.83405 34948 ft 461 kts 14°
2026-04-25 13:30 35.36502 -80.80085 34947 ft 462 kts 13°
2026-04-25 13:31 35.45751 -80.76753 34949 ft 462 kts 13°
2026-04-25 13:31 35.51926 -80.74525 34947 ft 462 kts 13°
2026-04-25 13:32 35.58107 -80.72291 34920 ft 463 kts 13°
2026-04-25 13:32 35.64292 -80.70052 34921 ft 463 kts 13°
2026-04-25 13:33 35.70477 -80.67809 34920 ft 464 kts 13°
2026-04-25 13:33 35.76667 -80.65561 34914 ft 464 kts 13°
2026-04-25 13:34 35.82858 -80.63308 34908 ft 464 kts 13°
2026-04-25 13:34 35.89054 -80.61051 34897 ft 464 kts 13°
2026-04-25 13:35 35.95211 -80.58804 34886 ft 465 kts 13°
2026-04-25 13:35 36.01411 -80.56537 34882 ft 465 kts 13°
2026-04-25 13:36 36.07609 -80.54268 34867 ft 465 kts 13°
2026-04-25 13:36 36.13820 -80.51989 34882 ft 465 kts 13°
2026-04-25 13:37 36.20018 -80.49712 34900 ft 465 kts 13°
2026-04-25 13:37 36.26223 -80.47429 34915 ft 465 kts 13°
2026-04-25 13:38 36.32424 -80.45143 34932 ft 465 kts 13°
2026-04-25 13:38 36.38623 -80.42854 34940 ft 465 kts 13°
2026-04-25 13:39 36.44858 -80.40800 34948 ft 462 kts
2026-04-25 13:39 36.51174 -80.39496 34941 ft 459 kts
2026-04-25 13:40 36.57520 -80.38501 34925 ft 461 kts
2026-04-25 13:40 36.63840 -80.37306 34916 ft 463 kts
2026-04-25 13:41 36.70201 -80.35983 34891 ft 464 kts
2026-04-25 13:41 36.76579 -80.34709 34890 ft 464 kts
2026-04-25 13:42 36.82987 -80.33787 34884 ft 463 kts
2026-04-25 13:42 36.89386 -80.32977 34896 ft 463 kts
2026-04-25 13:43 36.94705 -80.32265 34915 ft 463 kts
2026-04-25 13:43 37.01106 -80.31365 34944 ft 463 kts
2026-04-25 13:44 37.07503 -80.30450 34962 ft 462 kts
2026-04-25 13:44 37.13898 -80.29534 34979 ft 462 kts
2026-04-25 13:45 37.20286 -80.28620 34987 ft 462 kts
2026-04-25 13:45 37.26670 -80.27707 34982 ft 462 kts
2026-04-25 13:46 37.33057 -80.26791 34963 ft 462 kts
2026-04-25 13:46 37.39446 -80.25873 34944 ft 462 kts
2026-04-25 13:47 37.45839 -80.24953 34915 ft 462 kts
2026-04-25 13:47 37.52195 -80.24037 34901 ft 462 kts
2026-04-25 13:48 37.58586 -80.23114 34914 ft 462 kts
2026-04-25 13:48 37.64975 -80.22190 34917 ft 462 kts
2026-04-25 13:49 37.71363 -80.21243 34934 ft 462 kts
2026-04-25 13:49 37.77741 -80.20281 34948 ft 461 kts
2026-04-25 13:50 37.84123 -80.19319 34946 ft 462 kts
2026-04-25 13:50 37.90504 -80.18358 34941 ft 462 kts
2026-04-25 13:51 37.96891 -80.17395 34935 ft 462 kts
2026-04-25 13:51 38.03279 -80.16430 34926 ft 462 kts
2026-04-25 13:52 38.09674 -80.15463 34925 ft 463 kts
2026-04-25 13:52 38.16083 -80.14492 34907 ft 464 kts
2026-04-25 13:53 38.22488 -80.13519 34900 ft 464 kts
2026-04-25 13:53 38.28896 -80.12544 34889 ft 464 kts
2026-04-25 13:54 38.35294 -80.11569 34896 ft 463 kts
2026-04-25 13:54 38.41664 -80.10959 34893 ft 460 kts 356°
2026-04-25 13:55 38.48050 -80.10700 34895 ft 459 kts 356°
2026-04-25 13:55 38.54433 -80.10428 34904 ft 459 kts 356°
2026-04-25 13:56 38.60832 -80.10099 34895 ft 460 kts 356°
2026-04-25 13:56 38.67219 -80.09750 34902 ft 459 kts 356°
2026-04-25 13:57 38.73607 -80.09402 34908 ft 459 kts 356°
2026-04-25 13:57 38.79990 -80.09056 34917 ft 459 kts 356°
2026-04-25 13:58 38.86383 -80.08711 34918 ft 460 kts 356°
2026-04-25 13:58 38.92779 -80.08364 34913 ft 460 kts 356°
2026-04-25 13:59 38.99139 -80.08017 34902 ft 460 kts 357°
2026-04-25 13:59 39.05517 -80.07668 34899 ft 458 kts 356°
2026-04-25 14:00 39.11892 -80.07314 34891 ft 459 kts 356°
2026-04-25 14:00 39.18284 -80.06955 34903 ft 460 kts 357°
2026-04-25 14:01 39.24687 -80.06587 34900 ft 461 kts 356°
2026-04-25 14:01 39.31100 -80.06209 34908 ft 462 kts 357°
2026-04-25 14:02 39.37523 -80.05825 34901 ft 462 kts 357°
2026-04-25 14:02 39.43945 -80.05060 34870 ft 470 kts
2026-04-25 14:03 39.49927 -80.01420 34900 ft 478 kts 22°
2026-04-25 14:03 39.55919 -79.97738 34909 ft 475 kts 17°
2026-04-25 14:04 39.62041 -79.94524 34902 ft 475 kts 16°
2026-04-25 14:04 39.68130 -79.91326 34921 ft 475 kts 17°
2026-04-25 14:05 39.74238 -79.88012 34905 ft 476 kts 17°
2026-04-25 14:05 39.80327 -79.84651 34894 ft 476 kts 17°
2026-04-25 14:06 39.86413 -79.81275 34894 ft 476 kts 17°
2026-04-25 14:06 39.92500 -79.77896 34909 ft 476 kts 17°
2026-04-25 14:07 39.98591 -79.74512 34907 ft 476 kts 17°
2026-04-25 14:07 40.04681 -79.71124 34906 ft 476 kts 17°
2026-04-25 14:08 40.10778 -79.67725 34891 ft 476 kts 17°
2026-04-25 14:08 40.16863 -79.64326 34877 ft 476 kts 17°
2026-04-25 14:09 40.22962 -79.60912 34883 ft 476 kts 17°
2026-04-25 14:09 40.29028 -79.57510 34890 ft 477 kts 18°
2026-04-25 14:10 40.35121 -79.54085 34892 ft 477 kts 18°
2026-04-25 14:10 40.41216 -79.50653 34889 ft 477 kts 18°
2026-04-25 14:11 40.47309 -79.47216 34878 ft 477 kts 18°
2026-04-25 14:11 40.53402 -79.43771 34865 ft 477 kts 18°
2026-04-25 14:12 40.59500 -79.40317 34868 ft 477 kts 18°
2026-04-25 14:12 40.65594 -79.36858 34865 ft 477 kts 18°
2026-04-25 14:13 40.71684 -79.33394 34882 ft 477 kts 18°
2026-04-25 14:13 40.77771 -79.29925 34870 ft 477 kts 18°
2026-04-25 14:14 40.83862 -79.26448 34865 ft 477 kts 18°
2026-04-25 14:14 40.89948 -79.22966 34854 ft 477 kts 18°
2026-04-25 14:15 40.96039 -79.19474 34848 ft 477 kts 18°
2026-04-25 14:15 41.02127 -79.15977 34858 ft 477 kts 18°
2026-04-25 14:16 41.08214 -79.12472 34860 ft 477 kts 18°
2026-04-25 14:16 41.14302 -79.08961 34866 ft 477 kts 18°
2026-04-25 14:17 41.20396 -79.05438 34872 ft 477 kts 18°
2026-04-25 14:17 41.26479 -79.01915 34869 ft 477 kts 18°
2026-04-25 14:18 41.32562 -78.98385 34866 ft 477 kts 18°
2026-04-25 14:18 41.38599 -78.94874 34862 ft 476 kts 18°
2026-04-25 14:19 41.44665 -78.91339 34867 ft 475 kts 18°
2026-04-25 14:19 41.50717 -78.87806 34854 ft 474 kts 18°
2026-04-25 14:20 41.56757 -78.84272 34866 ft 473 kts 18°
2026-04-25 14:20 41.62782 -78.80739 34874 ft 473 kts 18°
2026-04-25 14:21 41.68800 -78.77205 34874 ft 472 kts 18°
2026-04-25 14:21 41.74804 -78.73670 34881 ft 471 kts 18°
2026-04-25 14:22 41.80806 -78.70130 34846 ft 468 kts 18°
2026-04-25 14:22 41.83776 -78.68372 34214 ft 466 kts 18°
2026-04-25 14:22 41.86722 -78.66628 33575 ft 460 kts 18°
2026-04-25 14:22 41.89648 -78.64895 32743 ft 460 kts 18°
2026-04-25 14:23 41.92586 -78.63158 31805 ft 463 kts 19°
2026-04-25 14:23 41.95550 -78.61405 30816 ft 468 kts 19°
2026-04-25 14:23 41.98541 -78.59634 29790 ft 470 kts 20°
2026-04-25 14:23 42.01515 -78.57865 28543 ft 463 kts 20°
2026-04-25 14:24 42.04434 -78.56123 27374 ft 456 kts 20°
2026-04-25 14:24 42.07310 -78.54404 26243 ft 448 kts 20°
2026-04-25 14:24 42.10137 -78.52714 25157 ft 441 kts 20°
2026-04-25 14:24 42.12919 -78.51052 24237 ft 432 kts 20°
2026-04-25 14:25 42.15588 -78.49454 23581 ft 418 kts 20°
2026-04-25 14:25 42.18206 -78.47886 22790 ft 406 kts 20°
2026-04-25 14:25 42.20752 -78.46362 21998 ft 395 kts 20°
2026-04-25 14:25 42.21599 -78.45854 21741 ft 392 kts 20°
2026-04-25 14:26 42.25660 -78.43422 20502 ft 377 kts 20°
2026-04-25 14:26 42.28032 -78.42000 19781 ft 370 kts 20°
2026-04-25 14:26 42.30360 -78.40603 19065 ft 363 kts 20°
2026-04-25 14:26 42.32649 -78.39230 18373 ft 357 kts 20°
2026-04-25 14:27 42.34910 -78.37872 17495 ft 354 kts 20°
2026-04-25 14:27 42.37154 -78.36524 16590 ft 352 kts 20°
2026-04-25 14:27 42.39379 -78.35184 15722 ft 349 kts 20°
2026-04-25 14:27 42.41585 -78.33855 14875 ft 346 kts 20°
2026-04-25 14:28 42.43768 -78.32538 14050 ft 342 kts 20°
2026-04-25 14:28 42.45936 -78.31230 13171 ft 339 kts 20°
2026-04-25 14:28 42.48076 -78.29937 12284 ft 335 kts 20°
2026-04-25 14:28 42.50193 -78.28657 11517 ft 330 kts 20°
2026-04-25 14:29 42.52233 -78.27418 11279 ft 314 kts 20°
2026-04-25 14:29 42.54234 -78.26207 11173 ft 315 kts 20°
2026-04-25 14:29 42.56235 -78.24996 11061 ft 315 kts 20°
2026-04-25 14:29 42.58226 -78.23790 11020 ft 311 kts 20°
2026-04-25 14:30 42.60121 -78.22343 11018 ft 317 kts 33°
2026-04-25 14:30 42.63490 -78.18434 10814 ft 312 kts 39°
2026-04-25 14:30 42.65034 -78.16521 10655 ft 295 kts 39°
2026-04-25 14:31 42.66545 -78.14675 10154 ft 290 kts 38°
2026-04-25 14:31 42.68058 -78.12861 9545 ft 289 kts 38°
2026-04-25 14:31 42.69571 -78.11068 8936 ft 287 kts 38°
2026-04-25 14:31 42.70566 -78.09897 8542 ft 285 kts 38°
2026-04-25 14:32 42.72087 -78.08113 7918 ft 284 kts 38°
2026-04-25 14:32 42.73552 -78.06398 7352 ft 281 kts 38°
2026-04-25 14:32 42.75022 -78.04680 6899 ft 275 kts 38°
2026-04-25 14:32 42.76446 -78.03016 6558 ft 266 kts 38°
2026-04-25 14:33 42.77832 -78.01396 6236 ft 260 kts 38°
2026-04-25 14:33 42.79225 -77.99772 5923 ft 270 kts 39°
2026-04-25 14:33 42.80666 -77.98090 5569 ft 273 kts 39°
2026-04-25 14:33 42.82108 -77.96405 5237 ft 273 kts 39°
2026-04-25 14:34 42.83546 -77.94721 4912 ft 272 kts 39°
2026-04-25 14:34 42.84977 -77.93045 4559 ft 271 kts 40°
2026-04-25 14:34 42.86401 -77.91377 4230 ft 269 kts 40°
2026-04-25 14:34 42.87798 -77.89740 4093 ft 260 kts 41°
2026-04-25 14:35 42.89146 -77.88159 3969 ft 250 kts 41°
2026-04-25 14:35 42.90421 -77.86663 3875 ft 234 kts 42°
2026-04-25 14:35 42.91616 -77.85262 3762 ft 220 kts 42°
2026-04-25 14:35 42.92771 -77.83973 3668 ft 208 kts 39°
2026-04-25 14:36 42.93934 -77.82881 3567 ft 198 kts 34°
2026-04-25 14:36 42.95086 -77.81901 3504 ft 193 kts 34°
2026-04-25 14:36 42.96217 -77.80953 3399 ft 190 kts 34°
2026-04-25 14:36 42.97359 -77.79993 3278 ft 193 kts 34°
2026-04-25 14:37 42.98501 -77.79030 3128 ft 192 kts 35°
2026-04-25 14:37 42.99627 -77.78080 2960 ft 190 kts 35°
2026-04-25 14:37 43.00749 -77.77136 2809 ft 187 kts 36°
2026-04-25 14:37 43.01847 -77.76213 2610 ft 183 kts 36°
2026-04-25 14:38 43.02905 -77.75323 2376 ft 175 kts 38°
2026-04-25 14:38 43.03899 -77.74488 2156 ft 159 kts 39°
2026-04-25 14:38 43.04805 -77.73722 1955 ft 150 kts 38°
2026-04-25 14:38 43.05677 -77.72987 1726 ft 147 kts 39°
2026-04-25 14:39 43.06539 -77.72259 1517 ft 142 kts 38°
2026-04-25 14:39 43.07378 -77.71549 1349 ft 145 kts 36°
2026-04-25 14:39 43.08248 -77.70820 1140 ft 144 kts 36°
2026-04-25 14:39 43.09085 -77.70115 961 ft 141 kts 35°
2026-04-25 14:40 43.09880 -77.69431 771 ft 133 kts 36°
2026-04-25 14:40 43.10652 -77.68784 601 ft 126 kts 31°
2026-04-25 14:40 43.11332 -77.68215 549 ft 103 kts 32°
2026-04-25 14:40 43.11833 -77.67804 565 ft 70 kts 32°
2026-04-25 14:41 43.12213 -77.67482 567 ft 59 kts 32°
2026-04-25 14:41 43.12492 -77.67247 572 ft 27 kts 39°
2026-04-25 14:41 43.12510 -77.67086 573 ft 17 kts 95°
2026-04-25 14:41 43.12515 -77.66929 565 ft 16 kts 86°
2026-04-25 14:42 43.12519 -77.66778 559 ft 16 kts 88°
2026-04-25 14:42 43.12522 -77.66715 559 ft 9 kts 90°
2026-04-25 14:42 43.12523 -77.66608 557 ft 8 kts 74°
2026-04-25 14:42 43.12558 -77.66553 560 ft 8 kts 11°
2026-04-25 14:43 43.12612 -77.66557 562 ft 5 kts 334°
2026-04-25 14:43 43.12626 -77.66596 563 ft 5 kts 292°
2026-04-25 14:43 43.12630 -77.66609 565 ft 0 kts 297°